Time,TemperatureF,DewpointF,PressureIn,WindDirection,WindDirectionDegrees,WindSpeedMPH,WindSpeedGustMPH,Humidity,HourlyPrecipIn,Conditions,Clouds,dailyrainin,SoftwareType,DateUTC
2013-02-17 00:01:00,26.0,9.0,30.02,ESE,123,0.0,4.0,48,0.00,,,0.01,,2013-02-17 07:01:00,
2013-02-17 00:11:00,27.0,9.0,30.01,SSW,209,7.0,10.0,47,0.00,,,0.01,,2013-02-17 07:11:00,
2013-02-17 00:21:00,27.0,9.0,30.01,SSW,209,7.0,10.0,47,0.00,,,0.01,,2013-02-17 07:21:00,
2013-02-17 00:31:00,27.0,9.0,30.02,SE,130,1.0,3.0,46,0.00,,,0.01,,2013-02-17 07:31:00,
2013-02-17 00:41:00,27.0,9.0,30.02,SE,130,1.0,3.0,46,0.00,,,0.01,,2013-02-17 07:41:00,
2013-02-17 00:52:00,27.0,9.0,30.01,South,182,8.0,14.0,47,0.00,,,0.01,,2013-02-17 07:52:00,
2013-02-17 01:01:00,27.0,9.0,29.99,SW,219,0.0,10.0,45,0.00,,,0.01,,2013-02-17 08:01:00,
2013-02-17 01:11:00,27.0,9.0,29.99,SW,219,0.0,10.0,45,0.00,,,0.01,,2013-02-17 08:11:00,
2013-02-17 01:21:00,27.0,9.0,29.98,South,187,1.0,21.0,45,0.00,,,0.01,,2013-02-17 08:21:00,
2013-02-17 01:31:00,27.0,8.0,29.98,WSW,238,3.0,15.0,44,0.00,,,0.01,,2013-02-17 08:31:00,
2013-02-17 01:42:00,27.0,8.0,29.98,WSW,238,3.0,15.0,44,0.00,,,0.01,,2013-02-17 08:42:00,
2013-02-17 01:52:00,27.0,9.0,29.97,SSW,192,1.0,9.0,46,0.00,,,0.01,,2013-02-17 08:52:00,
2013-02-17 02:01:00,28.0,8.0,29.95,SSW,213,1.0,17.0,43,0.00,,,0.01,,2013-02-17 09:01:00,
2013-02-17 02:11:00,28.0,8.0,29.95,SSW,213,1.0,17.0,43,0.00,,,0.01,,2013-02-17 09:11:00,
2013-02-17 02:21:00,30.0,9.0,29.93,WSW,248,2.0,21.0,41,0.00,,,0.01,,2013-02-17 09:21:00,
2013-02-17 02:31:00,29.0,9.0,29.92,SW,230,2.0,20.0,42,0.00,,,0.01,,2013-02-17 09:31:00,
2013-02-17 02:41:00,29.0,9.0,29.92,SW,230,2.0,20.0,42,0.00,,,0.01,,2013-02-17 09:41:00,
2013-02-17 02:52:00,29.0,9.0,29.93,SW,229,1.0,26.0,42,0.00,,,0.00,,2013-02-17 09:52:00,
2013-02-17 03:01:00,28.0,7.0,29.92,West,263,3.0,23.0,41,0.00,,,0.00,,2013-02-17 10:01:00,
2013-02-17 03:11:00,29.0,8.0,29.90,SSW,202,15.0,25.0,40,0.00,,,0.00,,2013-02-17 10:11:00,
2013-02-17 03:21:00,29.0,8.0,29.90,SSW,202,15.0,25.0,40,0.00,,,0.00,,2013-02-17 10:21:00,
2013-02-17 03:31:00,30.0,8.0,29.91,South,185,2.0,21.0,38,0.00,,,0.00,,2013-02-17 10:31:00,
2013-02-17 03:41:00,30.0,8.0,29.91,South,185,2.0,21.0,38,0.00,,,0.00,,2013-02-17 10:41:00,
2013-02-17 03:52:00,30.0,8.0,29.91,SW,232,15.0,26.0,38,0.00,,,0.00,,2013-02-17 10:52:00,
2013-02-17 04:01:00,30.0,8.0,29.90,SW,229,12.0,24.0,38,0.00,,,0.00,,2013-02-17 11:01:00,
2013-02-17 04:11:00,30.0,8.0,29.90,SW,229,12.0,24.0,38,0.00,,,0.00,,2013-02-17 11:11:00,
2013-02-17 04:21:00,29.0,7.0,29.90,SSW,200,0.0,19.0,38,0.00,,,0.00,,2013-02-17 11:21:00,
2013-02-17 04:32:00,30.0,7.0,29.89,SSW,202,1.0,19.0,37,0.00,,,0.00,,2013-02-17 11:32:00,
2013-02-17 04:41:00,30.0,7.0,29.89,SSW,202,1.0,19.0,37,0.00,,,0.00,,2013-02-17 11:41:00,
2013-02-17 04:52:00,29.0,5.0,29.88,SW,236,4.0,23.0,36,0.00,,,0.00,,2013-02-17 11:52:00,
2013-02-17 05:03:00,29.0,5.0,29.88,SSW,207,4.0,22.0,35,0.00,,,0.00,,2013-02-17 12:03:00,
2013-02-17 05:11:00,29.0,5.0,29.88,SSW,207,4.0,22.0,35,0.00,,,0.00,,2013-02-17 12:11:00,
2013-02-17 05:22:00,30.0,5.0,29.88,SW,223,16.0,22.0,34,0.00,,,0.00,,2013-02-17 12:22:00,
2013-02-17 05:32:00,30.0,4.0,29.87,SSW,207,7.0,32.0,33,0.00,,,0.00,,2013-02-17 12:32:00,
2013-02-17 05:42:00,30.0,4.0,29.87,SSW,207,7.0,32.0,33,0.00,,,0.00,,2013-02-17 12:42:00,
2013-02-17 05:52:00,30.0,4.0,29.86,SSW,199,6.0,26.0,33,0.00,,,0.00,,2013-02-17 12:52:00,
2013-02-17 06:02:00,29.0,4.0,29.87,SW,227,12.0,23.0,33,0.00,,,0.00,,2013-02-17 13:02:00,
2013-02-17 06:12:00,29.0,4.0,29.87,SW,227,12.0,23.0,33,0.00,,,0.00,,2013-02-17 13:12:00,
2013-02-17 06:21:00,29.0,4.0,29.85,WSW,242,12.0,27.0,33,0.00,,,0.00,,2013-02-17 13:21:00,
2013-02-17 06:32:00,29.0,4.0,29.84,SW,229,13.0,23.0,33,0.00,,,0.00,,2013-02-17 13:32:00,
2013-02-17 06:41:00,29.0,4.0,29.84,SW,229,13.0,23.0,33,0.00,,,0.00,,2013-02-17 13:41:00,
2013-02-17 06:52:00,30.0,4.0,29.84,SW,229,13.0,27.0,32,0.00,,,0.00,,2013-02-17 13:52:00,
2013-02-17 07:01:00,29.0,3.0,29.83,SW,225,11.0,26.0,32,0.00,,,0.00,,2013-02-17 14:01:00,
2013-02-17 07:11:00,29.0,3.0,29.83,SW,225,11.0,26.0,32,0.00,,,0.00,,2013-02-17 14:11:00,
2013-02-17 07:21:00,29.0,4.0,29.83,WSW,245,15.0,25.0,34,0.00,,,0.00,,2013-02-17 14:21:00,
2013-02-17 07:32:00,28.0,4.0,29.85,West,261,14.0,24.0,35,0.00,,,0.00,,2013-02-17 14:32:00,
2013-02-17 07:42:00,28.0,4.0,29.85,West,261,14.0,24.0,35,0.00,,,0.00,,2013-02-17 14:42:00,
2013-02-17 07:53:00,28.0,4.0,29.83,SW,221,13.0,23.0,35,0.00,,,0.00,,2013-02-17 14:53:00,
2013-02-17 08:01:00,29.0,4.0,29.81,WSW,244,14.0,21.0,34,0.00,,,0.00,,2013-02-17 15:01:00,
2013-02-17 08:11:00,29.0,4.0,29.81,WSW,244,14.0,21.0,34,0.00,,,0.00,,2013-02-17 15:11:00,
2013-02-17 08:21:00,31.0,5.0,29.81,WSW,242,2.0,21.0,32,0.00,,,0.00,,2013-02-17 15:21:00,
2013-02-17 08:31:00,32.0,5.0,29.80,SW,231,15.0,26.0,31,0.00,,,0.00,,2013-02-17 15:31:00,
2013-02-17 08:41:00,32.0,5.0,29.80,SW,231,15.0,26.0,31,0.00,,,0.00,,2013-02-17 15:41:00,
2013-02-17 08:52:00,34.0,6.0,29.80,SW,227,3.0,16.0,30,0.00,,,0.00,,2013-02-17 15:52:00,
2013-02-17 09:01:00,36.0,7.0,29.80,WSW,256,11.0,23.0,29,0.00,,,0.00,,2013-02-17 16:01:00,
2013-02-17 09:21:00,37.0,7.0,29.79,WSW,242,16.0,25.0,28,0.00,,,0.00,,2013-02-17 16:21:00,
2013-02-17 09:32:00,38.0,8.0,29.78,SSW,195,6.0,26.0,28,0.00,,,0.00,,2013-02-17 16:32:00,
2013-02-17 09:41:00,38.0,8.0,29.78,SSW,195,6.0,26.0,28,0.00,,,0.00,,2013-02-17 16:41:00,
2013-02-17 09:52:00,39.0,8.0,29.78,WSW,246,6.0,26.0,27,0.00,,,0.00,,2013-02-17 16:52:00,
2013-02-17 10:02:00,39.0,8.0,29.78,SSW,205,16.0,27.0,27,0.00,,,0.00,,2013-02-17 17:02:00,
2013-02-17 10:11:00,39.0,8.0,29.78,SSW,205,16.0,27.0,27,0.00,,,0.00,,2013-02-17 17:11:00,
2013-02-17 10:21:00,40.0,7.0,29.77,SSW,200,23.0,31.0,25,0.00,,,0.00,,2013-02-17 17:21:00,
2013-02-17 10:32:00,39.0,7.0,29.76,SW,215,21.0,32.0,26,0.00,,,0.00,,2013-02-17 17:32:00,
2013-02-17 10:41:00,39.0,7.0,29.76,SW,215,21.0,32.0,26,0.00,,,0.00,,2013-02-17 17:41:00,
2013-02-17 10:52:00,39.0,8.0,29.76,SSW,196,17.0,29.0,27,0.00,,,0.00,,2013-02-17 17:52:00,
2013-02-17 11:01:00,40.0,8.0,29.75,SW,222,4.0,33.0,26,0.00,,,0.00,,2013-02-17 18:01:00,
2013-02-17 11:11:00,40.0,8.0,29.75,SW,222,4.0,33.0,26,0.00,,,0.00,,2013-02-17 18:11:00,
2013-02-17 11:22:00,41.0,9.0,29.75,SSW,210,16.0,27.0,26,0.00,,,0.00,,2013-02-17 18:22:00,
2013-02-17 11:33:00,41.0,9.0,29.75,SSW,202,18.0,36.0,26,0.00,,,0.00,,2013-02-17 18:33:00,
2013-02-17 11:42:00,41.0,9.0,29.75,SSW,202,18.0,36.0,26,0.00,,,0.00,,2013-02-17 18:42:00,
2013-02-17 11:52:00,41.0,10.0,29.73,South,190,24.0,33.0,27,0.00,,,0.00,,2013-02-17 18:52:00,
2013-02-17 12:01:00,41.0,10.0,29.72,SW,225,5.0,31.0,27,0.00,,,0.00,,2013-02-17 19:01:00,
2013-02-17 12:11:00,41.0,10.0,29.72,SW,225,5.0,31.0,27,0.00,,,0.00,,2013-02-17 19:11:00,
2013-02-17 12:21:00,41.0,9.0,29.71,SW,221,7.0,31.0,26,0.00,,,0.00,,2013-02-17 19:21:00,
2013-02-17 12:32:00,42.0,10.0,29.71,SSW,212,10.0,28.0,26,0.00,,,0.00,,2013-02-17 19:32:00,
2013-02-17 12:42:00,42.0,10.0,29.71,SSW,212,10.0,28.0,26,0.00,,,0.00,,2013-02-17 19:42:00,
2013-02-17 12:52:00,41.0,9.0,29.70,SW,215,21.0,31.0,26,0.00,,,0.00,,2013-02-17 19:52:00,
2013-02-17 13:01:00,41.0,10.0,29.70,SW,227,1.0,32.0,28,0.00,,,0.00,,2013-02-17 20:01:00,
2013-02-17 13:11:00,41.0,10.0,29.70,SW,227,1.0,32.0,28,0.00,,,0.00,,2013-02-17 20:11:00,
2013-02-17 13:21:00,41.0,10.0,29.70,WSW,240,13.0,25.0,27,0.00,,,0.00,,2013-02-17 20:21:00,
2013-02-17 13:32:00,41.0,10.0,29.70,WSW,240,13.0,25.0,27,0.00,,,0.00,,2013-02-17 20:32:00,
2013-02-17 13:42:00,41.0,10.0,29.70,WSW,240,13.0,25.0,27,0.00,,,0.00,,2013-02-17 20:42:00,
2013-02-17 13:52:00,41.0,10.0,29.70,WSW,240,13.0,25.0,27,0.00,,,0.00,,2013-02-17 20:52:00,
2013-02-17 14:01:00,41.0,10.0,29.70,WSW,240,13.0,25.0,27,0.00,,,0.00,,2013-02-17 21:01:00,
2013-02-17 18:21:00,27.0,14.0,29.74,West,280,4.0,19.0,57,0.00,,,0.00,,2013-02-18 01:21:00,
2013-02-17 18:32:00,26.0,12.0,29.75,NW,313,9.0,23.0,56,0.00,,,0.00,,2013-02-18 01:32:00,
2013-02-17 18:42:00,26.0,12.0,29.75,NW,313,9.0,23.0,56,0.00,,,0.00,,2013-02-18 01:42:00,
2013-02-17 18:52:00,25.0,13.0,29.76,NW,306,11.0,19.0,59,0.00,,,0.00,,2013-02-18 01:52:00,
2013-02-17 19:01:00,24.0,12.0,29.76,NNW,336,6.0,12.0,59,0.00,,,0.00,,2013-02-18 02:01:00,
2013-02-17 19:11:00,24.0,12.0,29.76,NNW,336,6.0,12.0,59,0.00,,,0.00,,2013-02-18 02:11:00,
2013-02-17 19:21:00,24.0,11.0,29.77,NW,323,3.0,13.0,58,0.00,,,0.00,,2013-02-18 02:21:00,
2013-02-17 19:32:00,23.0,11.0,29.77,SSE,165,0.0,12.0,60,0.00,,,0.00,,2013-02-18 02:32:00,
2013-02-17 19:41:00,23.0,11.0,29.77,SSE,165,0.0,12.0,60,0.00,,,0.00,,2013-02-18 02:41:00,
2013-02-17 19:52:00,23.0,12.0,29.77,SSW,208,0.0,9.0,62,0.00,,,0.00,,2013-02-18 02:52:00,
2013-02-17 20:01:00,23.0,12.0,29.77,SE,138,7.0,19.0,62,0.00,,,0.00,,2013-02-18 03:01:00,
2013-02-17 20:11:00,23.0,12.0,29.77,SE,138,7.0,19.0,62,0.00,,,0.00,,2013-02-18 03:11:00,
2013-02-17 20:21:00,23.0,11.0,29.76,South,179,0.0,16.0,60,0.00,,,0.00,,2013-02-18 03:21:00,
2013-02-17 20:31:00,22.0,10.0,29.77,SW,217,7.0,19.0,58,0.00,,,0.00,,2013-02-18 03:31:00,
2013-02-17 20:42:00,22.0,10.0,29.77,SW,217,7.0,19.0,58,0.00,,,0.00,,2013-02-18 03:42:00,
2013-02-17 20:52:00,22.0,9.0,29.77,South,180,5.0,20.0,57,0.00,,,0.00,,2013-02-18 03:52:00,
2013-02-17 21:01:00,22.0,10.0,29.78,SSW,195,7.0,14.0,58,0.00,,,0.00,,2013-02-18 04:01:00,
2013-02-17 21:11:00,22.0,10.0,29.78,SSW,195,7.0,14.0,58,0.00,,,0.00,,2013-02-18 04:11:00,
2013-02-17 21:21:00,22.0,10.0,29.78,WSW,252,4.0,14.0,58,0.00,,,0.00,,2013-02-18 04:21:00,
2013-02-17 21:32:00,22.0,10.0,29.78,SSW,211,8.0,17.0,58,0.00,,,0.00,,2013-02-18 04:32:00,
2013-02-17 21:41:00,22.0,10.0,29.78,SSW,211,8.0,17.0,58,0.00,,,0.00,,2013-02-18 04:41:00,
2013-02-17 21:52:00,22.0,9.0,29.78,NNW,329,8.0,16.0,57,0.00,,,0.00,,2013-02-18 04:52:00,
2013-02-17 22:01:00,22.0,8.0,29.78,ESE,117,1.0,12.0,55,0.00,,,0.00,,2013-02-18 05:01:00,
2013-02-17 22:11:00,22.0,8.0,29.78,ESE,117,1.0,12.0,55,0.00,,,0.00,,2013-02-18 05:11:00,
2013-02-17 22:21:00,21.0,8.0,29.80,NW,314,3.0,12.0,56,0.00,,,0.00,,2013-02-18 05:21:00,
2013-02-17 22:31:00,21.0,8.0,29.79,ENE,72,0.0,7.0,57,0.00,,,0.00,,2013-02-18 05:31:00,
2013-02-17 22:41:00,21.0,8.0,29.79,ENE,72,0.0,7.0,57,0.00,,,0.00,,2013-02-18 05:41:00,
2013-02-17 22:52:00,20.0,7.0,29.80,East,83,1.0,7.0,56,0.00,,,0.00,,2013-02-18 05:52:00,
2013-02-17 23:02:00,20.0,7.0,29.80,NNW,344,10.0,14.0,56,0.00,,,0.00,,2013-02-18 06:02:00,
2013-02-17 23:11:00,20.0,7.0,29.80,NNW,344,10.0,14.0,56,0.00,,,0.00,,2013-02-18 06:11:00,
2013-02-17 23:21:00,20.0,7.0,29.80,NE,49,0.0,15.0,57,0.00,,,0.00,,2013-02-18 06:21:00,
2013-02-17 23:32:00,19.0,7.0,29.81,North,355,2.0,15.0,58,0.00,,,0.00,,2013-02-18 06:32:00,
2013-02-17 23:41:00,19.0,7.0,29.82,NNE,13,1.0,7.0,58,0.00,,,0.00,,2013-02-18 06:41:00,
2013-02-17 23:52:00,19.0,7.0,29.82,NNE,13,1.0,7.0,58,0.00,,,0.00,,2013-02-18 06:52:00,